When you browse on this site, cookies collect data to enhance your experience and personalize the content and advertising you see.
Visit our Privacy Policy to learn more. By continuing to use the site, you agree to this use of cookies and data.
  • în România
  • Lista ţărilor
  • Pe 7 zile
  • Temperatura apei
  • Meteo pe hartă
  • Widget-uri
  • user-avatar
    Intrare

    Meteo pe oră la Salamanca

    Astăzi, 5 Iunie, Vineri

    Timp Temperatura Precipitaţii Vânt Presiune Umiditate
    00:00 +12°C° 0 mm 2 m/s 690 mmHg 72%
    01:00 +11°C° 0 mm 1 m/s 690 mmHg 74%
    02:00 +11°C° 0 mm 1 m/s 690 mmHg 77%
    03:00 +10°C° 0 mm 1 m/s 690 mmHg 79%
    04:00 +11°C° 0 mm 1 m/s 690 mmHg 78%
    05:00 +10°C° 0 mm 0 m/s 690 mmHg 77%
    06:00 +11°C° 0 mm 0 m/s 690 mmHg 73%
    07:00 +13°C° 0 mm 0 m/s 691 mmHg 66%
    08:00 +16°C° 0 mm 1 m/s 691 mmHg 59%
    09:00 +19°C° 0 mm 1 m/s 691 mmHg 52%
    10:00 +20°C° 0 mm 1 m/s 692 mmHg 47%
    11:00 +21°C° 0 mm 2 m/s 692 mmHg 43%
    12:00 +23°C° 0 mm 2 m/s 692 mmHg 38%
    13:00 +24°C° 0 mm 3 m/s 692 mmHg 37%
    14:00 +25°C° 0 mm 3 m/s 691 mmHg 36%
    15:00 +26°C° 0 mm 4 m/s 691 mmHg 35%
    16:00 +25°C° 0 mm 4 m/s 691 mmHg 37%
    17:00 +25°C° 0 mm 4 m/s 690 mmHg 39%
    18:00 +23°C° 0 mm 4 m/s 690 mmHg 41%
    19:00 +21°C° 0 mm 3 m/s 690 mmHg 47%
    20:00 +19°C° 0 mm 3 m/s 690 mmHg 53%
    21:00 +18°C° 0 mm 2 m/s 690 mmHg 58%
    22:00 +17°C° 0 mm 3 m/s 690 mmHg 63%
    23:00 +16°C° 0 mm 3 m/s 690 mmHg 68%

    Mâine, 6 Iunie, Sâmbătă

    Timp Temperatura Precipitaţii Vânt Presiune Umiditate
    00:00 +14°C° 0 mm 3 m/s 690 mmHg 73%
    01:00 +13°C° 0 mm 3 m/s 690 mmHg 76%
    02:00 +13°C° 0 mm 3 m/s 689 mmHg 78%
    03:00 +13°C° 0 mm 2 m/s 689 mmHg 81%
    04:00 +14°C° 0 mm 2 m/s 689 mmHg 80%
    05:00 +14°C° 0 mm 2 m/s 689 mmHg 78%
    06:00 +14°C° 0 mm 2 m/s 689 mmHg 77%
    07:00 +16°C° 0 mm 2 m/s 690 mmHg 69%
    08:00 +18°C° 0 mm 3 m/s 690 mmHg 61%
    09:00 +20°C° 0 mm 4 m/s 690 mmHg 54%
    10:00 +21°C° 0 mm 4 m/s 690 mmHg 49%
    11:00 +22°C° 0 mm 4 m/s 690 mmHg 45%
    12:00 +23°C° 0 mm 5 m/s 690 mmHg 41%
    13:00 +23°C° 0 mm 5 m/s 690 mmHg 40%
    14:00 +23°C° 0 mm 6 m/s 689 mmHg 39%
    15:00 +23°C° 0 mm 6 m/s 689 mmHg 38%
    16:00 +23°C° 0 mm 6 m/s 689 mmHg 42%
    17:00 +22°C° 0 mm 6 m/s 688 mmHg 45%
    18:00 +21°C° 0 mm 6 m/s 688 mmHg 49%
    19:00 +19°C° 0 mm 6 m/s 688 mmHg 58%
    20:00 +16°C° 0 mm 5 m/s 688 mmHg 68%
    21:00 +15°C° 0 mm 5 m/s 688 mmHg 77%
    22:00 +14°C° 0.1 mm 4 m/s 688 mmHg 82%
    23:00 +13°C° 0.1 mm 4 m/s 688 mmHg 87%

    Poimâine, 7 Iunie, Duminică

    Timp Temperatura Precipitaţii Vânt Presiune Umiditate
    00:00 +12°C° 0.1 mm 3 m/s 688 mmHg 92%
    01:00 +12°C° 0 mm 3 m/s 688 mmHg 93%
    02:00 +12°C° 0 mm 2 m/s 687 mmHg 95%
    03:00 +10°C° 0 mm 2 m/s 687 mmHg 96%
    04:00 +12°C° 0 mm 2 m/s 687 mmHg 94%
    05:00 +12°C° 0 mm 2 m/s 687 mmHg 92%
    06:00 +13°C° 0 mm 2 m/s 688 mmHg 90%
    07:00 +13°C° 0 mm 3 m/s 688 mmHg 85%
    08:00 +14°C° 0 mm 3 m/s 688 mmHg 81%
    09:00 +14°C° 0 mm 3 m/s 688 mmHg 77%
    10:00 +17°C° 0.1 mm 4 m/s 689 mmHg 70%
    11:00 +18°C° 0.1 mm 4 m/s 689 mmHg 63%
    12:00 +20°C° 0.1 mm 5 m/s 689 mmHg 55%
    13:00 +20°C° 0.2 mm 5 m/s 689 mmHg 55%
    14:00 +20°C° 0.2 mm 5 m/s 689 mmHg 55%
    15:00 +20°C° 0.2 mm 6 m/s 689 mmHg 54%
    16:00 +20°C° 0.2 mm 5 m/s 689 mmHg 55%
    17:00 +19°C° 0.2 mm 5 m/s 688 mmHg 56%
    18:00 +19°C° 0.2 mm 4 m/s 688 mmHg 57%
    19:00 +17°C° 0.1 mm 4 m/s 689 mmHg 65%
    20:00 +14°C° 0.1 mm 4 m/s 689 mmHg 72%
    21:00 +12°C° 0.1 mm 4 m/s 689 mmHg 80%
    22:00 +10°C° 0 mm 5 m/s 689 mmHg 80%
    23:00 +9°C° 0 mm 5 m/s 689 mmHg 81%

    8 Iunie, Luni

    Timp Temperatura Precipitaţii Vânt Presiune Umiditate
    00:00 +9°C° 0 mm 5 m/s 689 mmHg 81%
    01:00 +8°C° 0 mm 5 m/s 689 mmHg 80%
    02:00 +8°C° 0 mm 5 m/s 689 mmHg 78%
    03:00 +7°C° 0 mm 5 m/s 690 mmHg 76%
    04:00 +7°C° 0 mm 5 m/s 690 mmHg 75%
    05:00 +7°C° 0 mm 5 m/s 690 mmHg 74%
    06:00 +7°C° 0 mm 5 m/s 690 mmHg 73%
    07:00 +9°C° 0 mm 6 m/s 690 mmHg 66%
    08:00 +10°C° 0 mm 6 m/s 691 mmHg 59%
    09:00 +13°C° 0 mm 6 m/s 691 mmHg 53%
    10:00 +14°C° 0 mm 6 m/s 691 mmHg 47%
    11:00 +16°C° 0 mm 6 m/s 692 mmHg 41%
    12:00 +17°C° 0 mm 6 m/s 692 mmHg 35%
    13:00 +19°C° 0 mm 5 m/s 692 mmHg 35%
    14:00 +19°C° 0 mm 5 m/s 692 mmHg 35%
    15:00 +20°C° 0 mm 5 m/s 691 mmHg 35%
    16:00 +19°C° 0 mm 5 m/s 691 mmHg 36%
    17:00 +19°C° 0 mm 4 m/s 691 mmHg 37%
    18:00 +18°C° 0 mm 4 m/s 691 mmHg 38%
    19:00 +17°C° 0 mm 4 m/s 692 mmHg 43%
    20:00 +14°C° 0 mm 3 m/s 692 mmHg 48%
    21:00 +12°C° 0 mm 3 m/s 692 mmHg 53%
    22:00 +11°C° 0 mm 3 m/s 693 mmHg 61%
    23:00 +11°C° 0 mm 4 m/s 693 mmHg 69%

    9 Iunie, Marţi

    Timp Temperatura Precipitaţii Vânt Presiune Umiditate
    00:00 +10°C° 0 mm 4 m/s 693 mmHg 76%
    01:00 +8°C° 0 mm 4 m/s 693 mmHg 78%
    02:00 +7°C° 0 mm 4 m/s 693 mmHg 81%
    03:00 +8°C° 0 mm 3 m/s 693 mmHg 83%
    04:00 +8°C° 0 mm 3 m/s 693 mmHg 82%
    05:00 +8°C° 0 mm 3 m/s 693 mmHg 82%
    06:00 +8°C° 0 mm 3 m/s 693 mmHg 81%
    07:00 +10°C° 0 mm 4 m/s 694 mmHg 73%
    08:00 +12°C° 0 mm 4 m/s 694 mmHg 64%
    09:00 +14°C° 0 mm 4 m/s 694 mmHg 56%
    10:00 +17°C° 0 mm 4 m/s 694 mmHg 50%
    11:00 +18°C° 0 mm 4 m/s 694 mmHg 44%
    12:00 +19°C° 0 mm 3 m/s 694 mmHg 38%
    13:00 +19°C° 0 mm 3 m/s 694 mmHg 36%
    14:00 +20°C° 0 mm 3 m/s 694 mmHg 33%
    15:00 +21°C° 0 mm 3 m/s 694 mmHg 31%
    16:00 +20°C° 0 mm 3 m/s 693 mmHg 31%
    17:00 +20°C° 0 mm 3 m/s 693 mmHg 32%
    18:00 +20°C° 0 mm 3 m/s 693 mmHg 32%
    19:00 +18°C° 0 mm 3 m/s 693 mmHg 39%
    20:00 +15°C° 0 mm 4 m/s 694 mmHg 46%
    21:00 +13°C° 0 mm 4 m/s 694 mmHg 53%
    22:00 +12°C° 0 mm 4 m/s 694 mmHg 61%
    23:00 +12°C° 0 mm 4 m/s 694 mmHg 69%

    10 Iunie, Miercuri

    Timp Temperatura Precipitaţii Vânt Presiune Umiditate
    00:00 +10°C° 0 mm 5 m/s 694 mmHg 77%
    01:00 +9°C° 0 mm 5 m/s 694 mmHg 80%
    02:00 +10°C° 0 mm 4 m/s 694 mmHg 82%
    03:00 +8°C° 0 mm 4 m/s 693 mmHg 85%
    04:00 +8°C° 0 mm 4 m/s 693 mmHg 83%
    05:00 +8°C° 0 mm 4 m/s 694 mmHg 82%
    06:00 +8°C° 0 mm 5 m/s 694 mmHg 80%
    07:00 +10°C° 0 mm 5 m/s 694 mmHg 70%
    08:00 +13°C° 0 mm 5 m/s 694 mmHg 61%
    09:00 +15°C° 0 mm 5 m/s 694 mmHg 51%
    10:00 +17°C° 0 mm 5 m/s 694 mmHg 46%
    11:00 +19°C° 0 mm 5 m/s 694 mmHg 41%
    12:00 +20°C° 0 mm 4 m/s 694 mmHg 36%
    13:00 +21°C° 0 mm 4 m/s 694 mmHg 34%
    14:00 +22°C° 0 mm 4 m/s 694 mmHg 33%
    15:00 +22°C° 0 mm 3 m/s 693 mmHg 31%
    16:00 +22°C° 0 mm 3 m/s 693 mmHg 32%
    17:00 +22°C° 0 mm 3 m/s 693 mmHg 34%
    18:00 +21°C° 0 mm 3 m/s 693 mmHg 35%
    19:00 +19°C° 0 mm 4 m/s 692 mmHg 46%
    20:00 +16°C° 0 mm 5 m/s 692 mmHg 56%
    21:00 +14°C° 0 mm 6 m/s 692 mmHg 66%
    22:00 +13°C° 0 mm 5 m/s 692 mmHg 71%
    23:00 +12°C° 0 mm 4 m/s 692 mmHg 75%
    Arată mai mult